7 * 24
多渠道服务支持
STARLINK-11258是美国SpaceX星链星座的一员,于2025年1月13日发射入轨,属于星链互联网卫星网络的扩容卫星。星链系统旨在为全球提供高速低延迟宽带网络服务,覆盖偏远地区与网络基础设施薄弱区域,该卫星延续星链设计,参与构建低轨通信卫星星座,支撑全球互联服务的覆盖能力与网络冗余。
美国
(US)
| 数据来源 | 国际轨道数据 |
| 星历时间: | 2026-09-11T07:03:39+0800 20小时前 查看轨道信息 |
| 半长轴: | 6734.421km |
| 偏心率: | 0.0006406 |
| 轨道倾角: | 43.002° |
| 近地点辐角 | 255.758° |
| 升交点赤经 | 89.314° |
| 平近点角 | 104.257° |
| 近地点: | 351.969km |
| 远地点: | 360.599km |
| 周期: | 91.666分钟 |
| 每日圈数: | 15.709141 |